ECMWFNIL_925_rhum_024.txt.gz
RH
48 51 57 63 67 65 62 61 61 61 61 62 65 65 64 64 65 70 79 86 88 88 84 81 81 81 79 80 83 86 88 88 87 84 84 85 84 82 80 77 73 65
52 54 58 61 60 58 58 63 67 70 71 69 69 68 66 64 64 66 72 79 84 88 86 83 82 82 82 81 82 85 88 88 87 85 83 81 79 77 75 74 73 70
57 57 58 58 56 58 64 71 73 74 74 71 66 64 64 66 68 70 73 76 79 81 83 85 85 82 83 84 84 86 88 89 88 86 85 83 80 78 74 72 71 69
55 54 55 57 59 64 72 77 79 78 77 74 67 62 64 67 69 70 71 72 76 78 77 80 83 83 84 86 88 89 89 91 90 88 88 87 83 82 80 77 75 72
53 52 52 55 60 69 77 80 84 81 75 72 67 63 63 66 66 65 65 65 71 79 80 77 75 76 79 84 88 90 91 93 94 94 95 92 87 85 83 81 79 76
60 58 55 55 60 71 81 82 82 82 77 73 72 68 63 62 64 64 65 66 68 74 80 81 80 76 76 81 85 88 90 93 95 97 98 96 91 89 87 85 82 78
66 61 57 59 61 67 74 74 73 78 81 77 76 76 69 65 67 66 66 69 70 73 76 78 81 80 78 81 85 86 87 90 92 94 95 94 93 91 89 88 85 82
62 60 61 63 62 65 71 72 73 79 83 81 77 76 75 75 76 73 72 74 74 74 73 73 78 81 79 80 82 84 85 87 88 90 90 89 89 88 85 84 83 81
54 61 68 67 65 70 77 78 78 79 82 82 78 70 68 72 74 73 74 78 77 72 67 67 73 79 82 84 83 83 83 83 85 86 87 86 85 84 81 79 76 74
51 61 66 65 65 68 72 73 72 71 71 72 69 62 59 62 65 66 68 72 76 75 72 72 74 77 81 85 88 88 84 81 81 81 82 84 84 84 81 78 74 71
50 56 60 63 65 64 63 62 60 60 59 58 56 53 52 55 60 65 68 72 75 75 73 72 73 73 73 74 81 88 87 82 80 80 80 81 82 83 83 80 77 73
48 54 60 65 67 66 64 62 59 57 54 52 51 50 49 49 50 54 57 63 70 73 71 69 70 74 75 74 75 81 86 85 82 80 80 79 79 80 82 82 81 77
51 57 59 59 59 62 67 68 66 64 59 55 53 51 51 50 49 48 48 53 64 71 71 72 74 77 80 81 80 81 87 91 90 88 85 81 79 79 79 80 80 80
56 56 51 50 52 57 66 70 70 70 70 68 65 63 64 63 60 56 51 56 67 73 72 71 74 77 79 81 82 80 81 83 86 90 91 88 83 79 79 80 81 81
52 50 45 46 53 59 65 69 69 71 73 75 75 74 75 77 76 69 61 64 75 78 75 72 73 75 77 78 79 80 80 80 81 84 88 91 90 85 82 82 83 84
44 44 43 48 58 65 67 69 70 71 72 74 75 76 78 82 85 81 73 76 84 85 82 79 76 75 76 75 76 81 88 91 91 90 90 91 92 90 88 87 86 87
42 42 46 55 63 65 66 69 72 73 74 74 75 77 80 84 89 89 85 86 91 90 88 87 83 80 79 78 80 85 90 94 97 98 95 91 90 91 92 91 89 89
51 52 57 62 65 66 69 72 74 75 76 77 80 82 84 86 89 92 91 91 93 92 91 92 90 86 84 82 84 89 91 92 95 97 96 94 93 93 92 91 90 91
59 61 64 65 67 70 73 75 76 78 80 83 87 87 88 90 91 92 93 93 95 95 94 94 93 90 87 85 86 89 89 92 95 96 97 98 97 96 95 94 93 93
61 64 66 69 71 74 77 78 79 81 84 87 90 90 91 93 94 93 94 94 95 96 95 95 94 91 88 87 87 89 90 92 92 92 96 99 99 99 98 98 98 97
65 67 69 73 76 78 80 82 82 85 88 90 92 93 93 95 97 97 97 95 91 87 87 88 85 83 85 86 87 88 89 90 89 91 95 98 100 100 99 98 99 99
68 71 74 77 80 82 85 86 86 88 91 93 95 96 94 95 97 96 94 89 82 76 76 76 73 74 80 86 89 89 88 89 91 94 98 100 100 100 98 97 99 100
73 76 79 82 84 86 88 89 89 90 92 94 97 98 95 95 96 94 90 86 82 79 78 77 76 78 81 85 89 89 88 91 94 97 99 101 100 99 98 99 99 100
77 79 82 85 88 90 92 92 92 93 95 97 99 99 98 97 97 97 94 90 87 86 84 83 83 82 82 83 88 89 88 92 97 99 100 100 100 100 100 100 100 100
79 82 85 89 92 94 95 96 97 97 98 100 100 100 100 99 99 99 96 91 90 90 88 88 88 88 89 89 91 93 93 96 98 99 100 100 100 100 100 99 100 100
83 87 90 93 95 97 98 99 100 101 100 100 100 100 100 100 100 99 95 91 90 90 91 93 95 96 96 96 96 94 94 97 99 99 100 100 100 100 100 100 100 99

ECMWFNIL_925_rhum_027.txt.gz
RH
49 50 50 50 52 55 56 56 57 57 57 62 70 74 75 75 75 75 77 76 74 75 75 74 74 78 83 84 82 81 81 85 91 97 100 100 100 100 99 97 96 93
46 46 46 46 48 53 59 61 61 59 56 61 72 79 81 80 80 81 80 79 76 75 74 75 77 80 85 88 87 85 81 80 83 88 97 101 99 100 100 99 98 98
45 44 43 43 47 57 66 65 62 59 59 66 74 82 87 87 85 84 82 81 78 73 71 74 76 77 80 85 88 87 82 81 79 79 89 97 100 100 99 100 100 99
43 42 42 44 54 64 65 60 59 61 63 71 75 78 83 85 86 86 83 80 77 72 68 68 69 71 74 80 87 89 87 86 83 81 86 93 99 101 99 100 101 100
42 41 44 53 61 61 55 53 64 70 70 73 75 75 77 78 80 83 81 79 76 71 68 67 68 71 73 77 84 91 90 87 85 84 88 90 94 99 100 100 100 100
42 43 53 60 57 50 47 52 67 75 74 78 79 78 78 77 81 85 83 81 78 73 69 67 68 71 74 76 82 89 93 92 85 81 86 89 90 95 99 100 100 100
43 51 60 57 49 46 44 49 65 75 76 82 88 87 83 81 85 90 89 86 82 78 74 71 71 74 76 78 81 85 91 96 90 81 81 84 86 93 98 100 100 100
48 58 59 51 46 45 42 50 68 77 75 79 86 90 88 84 83 87 91 91 84 79 76 75 76 76 75 76 79 81 86 92 92 87 86 85 85 92 97 99 100 100
52 58 52 46 46 45 47 59 70 69 66 70 77 82 85 84 82 82 85 87 85 79 74 73 72 70 72 74 74 76 79 86 91 91 91 89 86 88 93 98 100 100
53 53 48 48 51 53 57 61 59 55 57 66 74 78 78 78 77 77 78 81 88 87 81 78 75 70 73 75 72 75 78 83 91 94 92 89 84 80 83 91 98 99
51 50 49 50 50 52 56 54 50 49 56 67 75 78 78 77 76 72 69 71 79 82 78 76 76 74 74 73 72 75 79 83 89 93 94 93 87 80 76 78 86 91
50 49 47 46 44 44 47 48 44 45 57 71 77 76 79 83 84 81 76 73 72 71 68 65 66 68 69 69 70 73 75 80 84 87 90 93 91 85 79 75 76 79
49 48 45 44 45 46 47 46 43 49 65 75 75 76 81 83 85 85 85 84 81 77 72 66 63 63 64 66 71 73 72 73 76 80 86 94 94 89 83 75 72 75
44 45 45 46 50 55 55 52 54 63 72 72 71 77 81 79 77 78 80 83 85 83 78 73 69 65 64 66 72 77 75 73 74 75 78 88 94 94 89 78 72 77
45 46 47 51 57 62 63 62 66 70 71 71 74 77 77 75 74 77 80 83 84 81 78 80 82 77 72 72 77 81 81 79 80 78 76 79 83 88 92 88 81 80
47 48 50 55 60 65 67 68 69 70 71 75 78 78 78 78 79 82 87 89 89 89 87 90 93 87 80 79 81 84 84 82 83 84 82 79 76 78 87 92 91 86
48 51 54 59 64 67 70 71 71 73 76 78 80 82 82 83 85 89 91 91 91 93 93 95 96 94 90 86 85 88 88 85 84 84 83 81 79 81 84 89 92 90
51 56 60 64 69 71 72 73 74 77 80 81 83 85 86 87 90 93 94 94 94 94 96 98 97 97 96 91 89 90 91 91 90 87 85 85 86 89 89 88 88 88
58 62 65 68 71 73 73 75 77 81 83 86 88 90 92 93 94 95 95 97 98 98 99 100 99 98 97 94 93 92 91 93 94 93 93 93 94 96 96 94 90 87
63 66 69 72 74 76 77 79 81 84 87 90 92 94 97 97 97 98 97 97 97 98 99 100 99 99 98 95 93 93 93 94 95 96 99 99 99 99 99 99 96 91
69 72 74 77 79 80 81 83 86 89 91 93 95 96 97 99 100 100 99 98 98 98 99 99 96 93 94 94 95 94 93 94 95 97 99 100 100 101 100 99 98 95
74 77 79 81 83 84 87 88 90 92 94 95 97 98 98 99 100 100 100 100 100 99 100 99 93 87 86 88 90 89 87 89 92 94 96 98 99 100 100 99 98 97
80 82 84 86 88 90 92 93 93 95 96 97 99 100 99 99 100 100 100 100 100 100 100 98 93 88 85 85 85 85 85 88 91 93 95 97 97 96 97 97 97 97
85 85 87 91 94 95 95 96 97 98 98 98 100 101 100 100 100 100 100 100 100 100 99 99 96 90 88 88 87 86 87 89 93 97 97 97 97 95 95 95 95 95
88 89 92 94 97 98 98 99 100 100 99 99 101 101 100 99 99 100 100 99 99 99 98 99 98 93 92 94 94 94 94 94 96 100 99 98 98 97 97 98 97 95
91 94 98 99 99 100 101 100 99 100 100 100 100 101 100 100 100 100 101 99 99 100 99 99 100 99 96 92 90 92 95 95 95 97 98 99 99 99 99 100 99 98

ECMWFNIL_925_rhum_033.txt.gz
RH
54 63 78 81 73 68 64 59 55 51 49 48 46 51 61 65 61 58 56 55 52 48 55 72 77 76 80 80 80 85 89 91 91 88 88 87 86 88 90 92 96 99
52 54 60 63 62 61 58 54 52 51 50 48 45 51 61 63 58 56 55 52 50 53 63 79 86 87 88 87 87 88 88 94 97 95 96 94 89 89 89 90 96 100
48 49 51 54 54 56 54 52 51 49 47 50 51 55 59 58 55 55 54 52 60 72 83 90 93 92 93 91 91 90 89 94 99 98 98 94 89 89 89 90 97 100
52 53 54 54 51 50 48 47 47 44 46 54 57 56 55 55 60 63 63 68 78 84 86 93 98 95 93 92 92 93 93 94 97 98 99 96 91 90 88 90 97 100
56 53 49 45 44 44 44 47 50 50 52 56 56 55 58 63 70 74 74 75 77 79 83 93 101 99 97 95 93 95 97 98 98 97 99 100 96 91 89 92 98 100
54 49 44 43 47 50 50 53 56 55 54 53 52 53 57 61 65 67 67 63 64 79 93 96 96 98 100 98 97 98 100 100 99 96 96 96 94 91 92 97 101 99
52 48 44 47 54 55 52 51 50 50 48 46 46 49 53 58 60 60 58 54 60 81 95 93 92 96 99 99 100 100 100 100 99 95 92 91 92 94 96 99 100 100
52 49 46 48 53 51 48 47 45 46 47 47 49 52 57 63 65 61 57 56 66 83 93 95 94 95 97 99 100 100 99 101 99 96 95 94 95 98 99 100 100 100
51 49 46 46 46 46 45 46 45 46 49 51 53 57 63 70 71 69 68 69 78 90 95 94 89 85 87 93 98 101 100 99 99 98 98 98 98 98 97 99 100 99
49 47 46 46 45 45 45 45 45 47 51 55 58 63 70 76 78 78 79 81 87 91 88 82 77 74 75 77 85 97 102 100 99 99 98 98 96 95 94 97 100 100
48 45 45 45 45 46 46 45 47 50 54 60 64 69 73 76 78 80 84 86 87 83 76 69 66 69 74 71 70 83 94 99 101 99 97 96 93 93 93 94 97 98
47 46 46 47 48 49 49 50 52 54 58 63 66 71 74 76 77 81 84 85 85 82 75 69 63 65 73 71 65 71 80 87 96 100 98 96 93 90 89 90 92 93
48 48 49 51 52 53 54 56 59 61 63 66 69 73 75 77 79 81 84 84 86 85 80 73 67 64 68 69 65 67 70 72 79 86 88 87 84 80 79 83 87 89
52 54 55 56 57 59 60 61 63 65 67 69 73 75 77 79 81 82 84 84 86 88 85 82 79 72 69 73 69 64 64 65 66 69 71 71 67 64 66 74 82 88
58 60 61 62 62 62 63 65 66 68 70 73 76 79 81 83 84 84 86 87 87 88 88 89 91 86 80 82 82 72 67 68 68 69 71 70 65 62 64 69 78 86
64 66 66 66 67 68 69 70 71 72 75 78 81 84 85 86 88 89 90 90 91 92 93 93 95 93 87 87 92 90 86 86 86 84 81 79 75 73 74 75 78 85
69 71 72 73 74 75 75 76 78 79 81 84 86 89 89 90 92 93 93 94 96 97 99 99 98 96 94 93 97 99 98 99 99 97 94 91 87 84 82 81 83 86
74 76 78 79 81 82 82 83 85 87 89 91 93 92 93 94 96 97 97 98 101 100 100 100 100 99 99 99 100 100 100 100 100 99 99 98 96 92 89 87 88 91
78 80 82 84 86 87 89 90 92 94 95 96 97 96 97 99 100 100 100 100 101 101 99 99 98 99 100 100 100 100 100 100 99 98 100 100 99 97 95 93 93 94
82 85 86 88 90 92 95 96 96 97 97 97 98 98 100 101 100 100 100 99 99 100 100 99 97 98 100 100 100 100 100 99 99 99 100 100 100 99 98 97 97 96
85 88 89 92 95 96 98 99 98 98 98 98 98 98 99 100 99 99 99 98 99 100 100 100 99 98 100 100 100 100 100 100 100 100 100 100 100 100 100 99 99 97
89 92 94 96 98 98 100 100 99 100 99 98 99 99 99 100 99 100 101 100 101 101 100 100 99 99 100 100 99 100 100 100 100 99 100 100 99 100 100 99 100 99
94 96 99 100 100 100 101 100 100 101 100 100 101 100 100 100 100 100 100 100 101 100 100 101 99 97 100 100 99 100 99 100 100 99 99 100 100 100 100 100 100 100
97 99 101 102 102 101 101 101 101 101 101 101 101 100 100 101 101 101 100 100 100 100 100 100 94 90 96 101 99 98 98 99 100 100 100 99 99 100 100 99 100 100
98 100 101 101 102 102 101 101 101 101 101 101 101 101 101 101 100 101 100 96 95 98 100 96 87 83 92 100 99 96 96 96 96 98 100 100 99 99 99 98 98 98
99 100 100 101 102 102 101 100 100 101 101 101 101 101 101 101 100 100 99 94 90 92 98 94 83 80 89 98 101 98 93 90 90 92 95 97 99 99 99 99 98 97

ECMWFNIL_925_rhum_039.txt.gz
RH
51 56 59 61 59 55 53 52 54 55 57 57 56 54 51 49 50 52 53 52 51 51 52 51 55 60 61 61 61 59 57 58 58 62 71 80 85 89 92 94 96 96
58 61 60 56 52 53 57 58 60 60 58 56 53 50 50 52 54 55 56 57 57 58 63 66 66 62 61 60 58 56 61 67 70 74 82 88 96 98 95 93 89 88
58 56 53 51 50 57 66 66 63 59 55 52 50 53 56 59 61 61 60 58 57 57 59 64 68 67 66 66 64 65 75 83 84 86 90 92 96 99 98 98 88 81
53 52 52 52 52 56 62 62 58 54 51 49 50 55 59 57 57 57 56 53 52 52 51 53 59 64 68 71 74 76 78 81 84 87 90 91 95 98 99 101 96 86
55 56 54 54 53 53 54 54 52 51 50 49 49 51 52 51 51 51 51 51 50 50 50 51 51 53 57 63 66 68 69 69 74 81 85 89 94 98 99 100 99 93
57 56 54 53 52 51 51 50 49 49 49 49 48 49 49 49 49 49 50 52 52 53 54 54 55 56 59 63 62 62 62 63 72 85 91 93 94 94 98 101 97 92
56 55 52 52 51 50 50 49 49 49 49 49 49 50 50 50 50 49 51 53 56 59 61 61 64 67 68 70 69 66 64 69 83 95 96 96 97 96 96 97 93 92
55 54 52 53 52 52 52 51 52 52 52 53 53 53 52 53 53 53 54 59 64 67 69 71 74 78 79 79 78 78 80 87 95 95 92 92 96 97 91 86 88 93
55 55 55 55 54 54 54 54 55 56 57 57 57 56 57 57 57 58 58 63 70 73 74 76 78 84 91 91 89 91 94 95 93 93 94 92 92 97 94 86 88 96
57 57 57 57 56 56 57 57 58 59 59 60 59 59 60 61 62 63 62 64 67 71 74 74 75 82 90 91 91 92 92 91 90 91 94 91 88 92 95 92 91 96
60 60 59 59 59 60 61 63 64 64 63 63 63 63 62 63 65 66 67 69 69 71 73 74 76 80 83 81 79 82 88 91 92 90 90 90 86 84 89 94 96 98
63 62 62 63 65 67 68 70 71 70 70 69 68 68 67 67 69 70 72 73 73 75 75 76 80 82 83 79 73 73 79 83 86 90 91 90 87 80 78 85 95 100
65 66 68 70 72 74 75 77 78 76 76 75 74 75 75 75 76 77 78 78 79 80 81 82 84 86 86 81 71 66 68 68 75 88 93 89 83 77 73 78 88 98
69 72 74 76 78 80 82 82 83 83 82 82 83 83 84 84 85 86 87 87 87 87 88 89 90 92 92 87 77 70 69 66 69 81 88 81 69 67 76 83 84 89
73 76 79 82 83 85 87 88 89 89 89 90 91 93 94 94 95 95 96 96 96 95 96 96 97 97 96 94 89 81 77 74 70 74 84 82 69 62 71 81 79 79
77 80 83 86 88 90 91 92 93 95 96 97 98 98 99 99 99 100 100 99 100 100 99 99 99 97 96 98 98 94 91 89 85 85 91 95 88 73 67 70 73 75
80 84 87 89 92 94 94 95 97 99 99 99 100 100 100 100 100 100 100 100 100 101 100 100 98 94 96 100 101 100 99 99 98 98 98 99 97 86 72 64 67 71
84 87 90 93 95 96 97 99 99 100 100 100 100 100 100 100 100 100 100 100 100 101 101 100 98 95 98 101 100 100 100 99 100 100 99 101 100 94 85 74 67 68
87 90 93 96 97 98 99 100 100 100 101 100 100 100 100 100 100 100 100 100 100 101 100 100 99 98 100 101 99 100 100 99 100 100 99 100 100 98 95 86 74 71
90 93 96 98 99 100 100 100 101 100 100 100 100 100 100 100 100 100 100 100 100 100 100 100 100 99 100 100 100 100 100 100 100 100 100 100 100 100 96 87 78 76
93 96 99 100 100 100 100 100 101 101 100 101 101 101 100 100 100 100 100 100 101 101 100 100 99 100 100 100 100 100 100 100 99 100 100 100 99 101 99 89 79 77
97 99 101 102 101 101 101 100 100 100 101 101 101 101 100 100 100 100 100 100 99 100 101 100 96 96 99 100 100 100 99 100 100 100 100 100 100 99 101 97 86 81
100 102 102 102 101 101 101 100 101 101 101 101 101 100 100 100 100 100 100 100 98 97 100 99 93 91 95 98 99 100 100 99 100 100 99 100 100 99 100 101 94 85
101 102 102 103 102 101 101 101 102 101 100 100 101 100 100 100 100 99 96 95 96 95 97 98 94 88 90 94 96 99 100 99 100 101 100 100 100 99 100 101 97 88
100 101 102 103 102 102 102 102 102 102 101 101 100 101 101 100 100 100 97 93 94 93 92 94 94 90 88 90 94 98 100 100 99 99 99 100 100 100 100 100 99 95
101 101 102 102 102 102 102 101 102 102 102 101 101 100 101 100 100 101 99 95 93 92 89 87 90 91 89 89 94 98 100 99 99 98 96 96 97 99 100 100 100 99

ECMWFNIL_925_rhum_045.txt.gz
RH
46 43 43 44 45 45 46 47 49 49 48 46 45 45 47 49 51 51 51 51 50 49 49 49 49 51 54 56 58 59 58 55 55 56 56 58 58 56 56 55 54 52
40 40 43 46 47 47 47 47 48 49 48 47 46 45 45 46 47 49 49 49 48 47 48 51 52 53 55 59 60 61 61 58 55 53 52 53 54 53 53 53 53 53
40 43 46 48 48 47 47 47 48 48 47 46 46 45 45 45 45 45 46 47 47 47 48 52 56 56 56 57 58 59 60 60 59 58 56 56 55 54 52 52 52 53
45 47 49 48 47 47 47 48 48 47 46 46 46 46 46 46 46 46 45 45 46 46 46 48 50 53 53 52 52 52 54 56 56 57 58 58 57 55 54 54 56 57
48 48 47 47 47 47 47 47 47 47 47 48 48 48 49 48 48 47 46 46 45 44 44 45 45 46 47 46 46 46 48 50 51 52 54 55 55 57 57 59 62 66
47 46 46 47 47 47 48 48 49 50 51 52 52 53 52 52 51 50 49 48 46 46 45 44 44 44 44 44 44 43 43 45 47 49 49 49 50 52 55 59 62 65
46 46 46 47 47 48 50 51 52 54 55 56 57 57 57 56 54 53 52 51 50 49 48 47 46 45 46 46 45 45 45 44 45 46 47 46 46 46 49 53 57 60
46 47 47 49 49 50 52 53 55 57 60 61 62 63 62 61 59 57 56 55 54 53 52 52 50 49 49 49 50 52 53 51 47 45 46 47 47 48 48 49 52 56
48 48 49 51 52 53 54 56 58 61 64 67 68 68 68 68 66 64 61 60 58 57 56 55 54 54 54 54 55 58 61 62 58 53 52 51 51 52 52 52 54 55
49 49 51 52 54 55 57 60 63 66 70 72 74 75 76 75 73 71 68 66 63 62 60 59 57 57 58 58 58 59 62 65 66 66 68 69 68 64 60 62 64 63
49 50 52 53 56 59 62 65 69 72 75 78 81 82 82 81 80 77 75 72 69 67 65 63 61 59 59 60 60 59 59 59 61 65 70 78 84 83 82 85 87 86
50 51 53 56 59 63 67 71 75 77 79 82 85 87 87 86 85 84 83 80 77 74 71 69 67 65 63 62 61 62 61 61 61 61 63 69 78 83 87 91 94 95
51 54 56 58 63 68 72 76 80 82 84 86 88 91 92 93 92 91 90 88 85 83 81 78 76 74 72 69 68 66 65 66 67 66 65 66 69 74 78 81 86 89
54 56 59 63 68 73 76 80 83 86 87 89 92 94 96 97 97 97 96 96 94 91 88 86 84 82 79 78 76 75 74 74 74 73 71 70 71 75 76 76 79 79
57 59 63 68 72 76 80 84 87 89 91 93 95 97 98 99 99 99 99 99 99 97 95 93 91 90 88 86 85 84 83 83 82 81 79 77 77 79 77 74 73 75
59 63 67 72 77 81 85 87 90 93 95 97 98 98 99 100 100 100 100 100 100 100 99 99 98 97 96 95 94 94 94 93 90 88 86 84 82 82 80 74 71 72
62 67 72 77 82 85 89 92 94 97 98 99 100 100 100 100 100 100 100 100 100 100 100 100 100 100 100 100 100 99 99 99 98 95 93 91 90 88 85 78 72 70
67 72 76 81 86 89 93 96 98 99 100 100 100 100 100 100 100 100 100 100 100 100 100 100 100 100 100 100 100 100 100 100 100 100 99 97 96 95 93 87 80 74
72 77 81 86 90 93 96 99 100 100 100 100 100 100 100 100 100 100 100 100 101 100 100 100 99 100 100 100 100 100 100 100 100 100 100 100 100 100 99 97 93 87
76 81 85 89 93 96 99 100 100 100 100 100 100 100 100 100 100 100 100 100 101 100 100 101 98 96 99 101 100 100 100 100 100 100 100 100 100 100 99 99 99 98
81 84 88 93 97 99 100 100 100 100 100 100 100 100 100 100 100 101 100 99 100 100 101 100 95 93 98 101 100 100 101 100 100 100 100 100 100 100 99 96 96 99
84 88 91 96 99 100 100 100 100 100 100 100 100 100 100 100 100 100 100 99 99 99 101 101 94 91 97 101 100 100 100 100 100 100 100 100 100 99 101 99 96 96
88 92 95 97 99 100 100 100 100 100 100 100 101 100 100 100 100 100 99 98 97 96 98 99 94 89 95 100 100 100 100 100 100 99 98 100 101 99 100 101 99 97
93 95 97 98 99 100 100 100 100 100 100 100 100 100 100 100 100 99 97 97 96 94 94 97 97 93 94 99 101 100 99 98 98 97 96 96 99 100 100 100 100 100
95 97 98 99 100 100 100 100 100 100 100 100 100 100 100 100 99 98 97 95 94 93 94 98 100 97 94 97 101 99 96 94 94 95 94 92 95 99 101 100 100 100
96 98 99 100 100 100 100 100 100 100 100 100 100 100 100 100 100 98 96 94 93 95 97 97 97 96 94 95 98 97 93 92 92 92 92 92 91 93 97 100 100 100